User: anonymous   Login
Location: Adamstown South Public School
(32.9318°S, 151.7012°E)
Time: 03:14:53
(UTC+00:00)
Language:

Cosmos 1725 Rocket - Orbit

View from above orbital plane
View from above orbital plane
View from above satellite
View from above satellite

Ground track
Ground track

The orbit data is extracted from the following two-line orbital elements,

1 16494U 86005B   20221.80978170 +.00000062 +00000-0 +47548-4 0  9990
2 16494 082.9323 297.4304 0018170 265.2429 234.3097 13.76500358735673
Epoch (UTC): 08 August 2020 19:26:05
Eccentricity: 0.0018170
inclination: 82.9323°
perigee height: 963 km
apogee height: 989 km
right ascension of ascending node: 297.4304°
argument of perigee: 265.2429°
revolutions per day: 13.76500358
mean anomaly at epoch: 234.3097°
orbit number at epoch: 73567

The dashed part of the orbit path shows where the satellite is in the earth's shadow,  

DLR